H1 CPF 2 NER 2024 8 15 9 228 01 glonass145 H2 2213001 9145 54031 2024 8 15 0 0 0 2024 8 18 23 45 0 900 1 1 0 0 0 1 H9 10 0 60537 0.00000 0 24881878.589 4962478.071 -2770153.397 10 0 60537 900.00000 0 25055009.887 4847515.833 436063.615 10 0 60537 1800.00000 0 24829715.374 4662707.556 3633823.907 10 0 60537 2700.00000 0 24203879.298 4463362.609 6761117.688 10 0 60537 3600.00000 0 23188674.021 4304412.533 9757305.027 10 0 60537 4500.00000 0 21808173.159 4237859.616 12564287.170 10 0 60537 5400.00000 0 20098444.033 4310354.790 15127628.432 10 0 60537 6300.00000 0 18106156.965 4561007.158 17397607.269 10 0 60537 7200.00000 0 15886768.942 5019517.766 19330176.591 10 0 60537 8100.00000 0 13502356.734 5704716.607 20887815.145 10 0 60537 9000.00000 0 11019188.948 6623565.115 22040253.960 10 0 60537 9900.00000 0 8505137.218 7770666.982 22765064.121 10 0 60537 10800.00000 0 6027033.310 9128309.069 23048094.716 10 0 60537 11700.00000 0 3648081.110 10667032.158 22883752.502 10 0 60537 12600.00000 0 1425430.265 12346709.248 22275117.632 10 0 60537 13500.00000 0 -591988.384 14118087.935 21233892.696 10 0 60537 14400.00000 0 -2365276.113 15924733.899 19780185.374 10 0 60537 15300.00000 0 -3866953.365 17705295.572 17942127.975 10 0 60537 16200.00000 0 -5081863.046 19395996.232 15755340.314 10 0 60537 17100.00000 0 -6007552.721 20933249.812 13262245.337 10 0 60537 18000.00000 0 -6654120.042 22256291.009 10511250.018 10 0 60537 18900.00000 0 -7043528.330 23309709.115 7555806.850 10 0 60537 19800.00000 0 -7208421.660 24045778.602 4453373.895 10 0 60537 20700.00000 0 -7190490.091 24426487.608 1264293.759 10 0 60537 21600.00000 0 -7038454.943 24425178.017 -1949386.248 10 0 60537 22500.00000 0 -6805760.381 24027727.046 -5125129.116 10 0 60537 23400.00000 0 -6548070.184 23233219.687 -8201133.605 10 0 60537 24300.00000 0 -6320677.008 22054082.982 -11117545.353 10 0 60537 25200.00000 0 -6175935.130 20515675.989 -13817629.024 10 0 60537 26100.00000 0 -6160826.617 18655352.507 -16248877.803 10 0 60537 27000.00000 0 -6314764.982 16521035.943 -18364038.082 10 0 60537 27900.00000 0 -6667730.047 14169366.285 -20122029.080 10 0 60537 28800.00000 0 -7238813.479 11663497.073 -21488739.551 10 0 60537 29700.00000 0 -8035236.770 9070634.741 -22437686.387 10 0 60537 30600.00000 0 -9051883.325 6459423.135 -22950522.912 10 0 60537 31500.00000 0 -10271364.475 3897282.208 -23017387.660 10 0 60537 32400.00000 0 -11664616.719 1447811.315 -22637087.657 10 0 60537 33300.00000 0 -13192005.202 -831635.540 -21817113.403 10 0 60537 34200.00000 0 -14804887.229 -2892102.621 -20573485.857 10 0 60537 35100.00000 0 -16447570.448 -4694825.324 -18930438.943 10 0 60537 36000.00000 0 -18059583.881 -6212589.915 -16919943.988 10 0 60537 36900.00000 0 -19578166.948 -7430605.204 -14581085.518 10 0 60537 37800.00000 0 -20940872.514 -8346851.630 -11959300.517 10 0 60537 38700.00000 0 -22088175.284 -8971895.024 -9105495.839 10 0 60537 39600.00000 0 -22965976.532 -9328174.552 -6075060.794 10 0 60537 40500.00000 0 -23527900.440 -9448796.284 -2926793.911 10 0 60537 41400.00000 0 -23737285.968 -9375884.387 278235.425 10 0 60537 42300.00000 0 -23568790.815 -9158560.377 3477868.489 10 0 60537 43200.00000 0 -23009540.297 -8850636.351 6610059.065 10 0 60537 44100.00000 0 -22059772.838 -8508119.945 9614072.485 10 0 60537 45000.00000 0 -20732954.801 -8186636.543 12431658.770 10 0 60537 45900.00000 0 -19055359.459 -7938877.589 15008177.394 10 0 60537 46800.00000 0 -17065127.046 -7812182.650 17293652.264 10 0 60537 47700.00000 0 -14810844.498 -7846357.209 19243736.850 10 0 60537 48600.00000 0 -12349703.201 -8071818.231 20820571.275 10 0 60537 49500.00000 0 -9745310.495 -8508145.865 21993515.198 10 0 60537 50400.00000 0 -7065244.955 -9163102.715 22739742.674 10 0 60537 51300.00000 0 -4378455.958 -10032162.701 23044687.717 10 0 60537 52200.00000 0 -1752614.486 -11098570.361 22902331.943 10 0 60537 53100.00000 0 748475.773 -12333929.379 22315328.504 10 0 60537 54000.00000 0 3067300.374 -13699297.102 21294959.424 10 0 60537 54900.00000 0 5154789.208 -15146740.598 19860926.439 10 0 60537 55800.00000 0 6972115.608 -16621290.355 18040978.499 10 0 60537 56700.00000 0 8492064.992 -18063210.785 15870382.169 10 0 60537 57600.00000 0 9699916.270 -19410493.030 13391244.247 10 0 60537 58500.00000 0 10593799.478 -20601465.760 10651698.925 10 0 60537 59400.00000 0 11184515.022 -21577414.120 7704974.719 10 0 60537 60300.00000 0 11494822.593 -22285096.245 4608359.011 10 0 60537 61200.00000 0 11558230.299 -22679050.511 1422080.455 10 0 60537 62100.00000 0 11417335.876 -22723595.321 -1791868.573 10 0 60537 63000.00000 0 11121791.012 -22394435.964 -4970945.853 10 0 60537 63900.00000 0 10725975.978 -21679809.663 -8053284.917 10 0 60537 64800.00000 0 10286484.221 -20581119.556 -10978907.467 10 0 60537 65700.00000 0 9859524.612 -19113030.071 -13690898.027 10 0 60537 66600.00000 0 9498352.515 -17303019.125 -16136517.069 10 0 60537 67500.00000 0 9250839.400 -15190405.652 -18268230.327 10 0 60537 68400.00000 0 9157284.572 -12824893.111 -20044634.016 10 0 60537 69300.00000 0 9248562.064 -10264690.049 -21431257.914 10 0 60537 70200.00000 0 9544681.168 -7574286.346 -22401231.038 10 0 60537 71100.00000 0 10053821.423 -4821977.983 -22935797.536 10 0 60537 72000.00000 0 10771882.566 -2077243.413 -23024673.469 10 0 60537 72900.00000 0 11682568.213 591919.590 -22666238.319 10 0 60537 73800.00000 0 12757999.527 3121586.453 -21867558.273 10 0 60537 74700.00000 0 13959832.870 5454320.728 -20644241.431 10 0 60537 75600.00000 0 15240834.394 7541312.221 -19020128.259 10 0 60537 76500.00000 0 16546845.458 9344150.777 -17026823.601 10 0 60537 77400.00000 0 17819056.367 10836163.444 -14703079.481 10 0 60537 78300.00000 0 18996493.209 12003261.036 -12094040.716 10 0 60537 79200.00000 0 20018613.543 12844260.534 -9250367.887 10 0 60537 80100.00000 0 20827902.135 13370671.532 -6227254.595 10 0 60537 81000.00000 0 21372357.971 13605957.361 -3083357.948 10 0 60537 81900.00000 0 21607768.148 13584303.269 120337.121 10 0 60537 82800.00000 0 21499673.171 13348944.629 3321697.761 10 0 60537 83700.00000 0 21024941.142 12950126.482 6458644.559 10 0 60537 84600.00000 0 20172884.504 12442780.947 9470351.215 10 0 60537 85500.00000 0 18945872.175 11884020.746 12298419.409 10 0 60538 0.00000 0 17359411.008 11330554.675 14888006.189 10 0 60538 900.00000 0 15441691.497 10836133.626 17188883.702 10 0 60538 1800.00000 0 13232618.054 10449135.410 19156407.748 10 0 60538 2700.00000 0 10782360.405 10210388.964 20752381.481 10 0 60538 3600.00000 0 8149487.316 10151330.245 21945794.478 10 0 60538 4500.00000 0 5398758.279 10292567.207 22713424.660 10 0 60538 5400.00000 0 2598663.762 10642914.564 23040291.422 10 0 60538 6300.00000 0 -181185.090 11198939.523 22919951.226 10 0 60538 7200.00000 0 -2872710.085 11945038.392 22354629.711 10 0 60538 8100.00000 0 -5411953.824 12854041.911 21355187.305 10 0 60538 9000.00000 0 -7741495.130 13888325.061 19940918.268 10 0 60538 9900.00000 0 -9812592.290 15001375.899 18139186.178 10 0 60538 10800.00000 0 -11586965.385 16139758.572 15984901.955 10 0 60538 11700.00000 0 -13038143.748 17245388.789 13519853.539 10 0 60538 12600.00000 0 -14152322.474 18258026.480 10791899.439 10 0 60538 13500.00000 0 -14928692.408 19117880.767 7854041.208 10 0 60538 14400.00000 0 -15379230.060 19768217.128 4763392.544 10 0 60538 15300.00000 0 -15527956.730 20157856.083 1580065.204 10 0 60538 16200.00000 0 -15409698.692 20243456.958 -1634006.211 10 0 60538 17100.00000 0 -15068401.541 19991489.123 -4816276.998 10 0 60538 18000.00000 0 -14555070.937 19379806.227 -7904818.025 10 0 60538 18900.00000 0 -13925427.937 18398755.776 -10839529.441 10 0 60538 19800.00000 0 -13237379.265 17051776.177 -13563317.807 10 0 60538 20700.00000 0 -12548410.686 15355455.252 -16023212.790 10 0 60538 21600.00000 0 -11913014.723 13339047.075 -18171401.114 10 0 60538 22500.00000 0 -11380262.218 11043467.027 -19966157.331 10 0 60538 23400.00000 0 -10991620.812 8519806.902 -21372653.281 10 0 60538 24300.00000 0 -10779112.622 5827432.066 -22363630.830 10 0 60538 25200.00000 0 -10763888.695 3031739.962 -22919925.368 10 0 60538 26100.00000 0 -10955279.995 201673.249 -23030830.564 10 0 60538 27000.00000 0 -11350364.387 -2592909.195 -22694298.098 10 0 60538 27900.00000 0 -11934067.264 -5283894.645 -21916969.219 10 0 60538 28800.00000 0 -12679791.033 -7807502.257 -20714038.162 10 0 60538 29700.00000 0 -13550546.500 -10106685.735 -19108950.578 10 0 60538 30600.00000 0 -14500538.221 -12133254.223 -17132943.123 10 0 60538 31500.00000 0 -15477136.908 -13849624.588 -14824433.348 10 0 60538 32400.00000 0 -16423155.864 -15230133.632 -12228271.716 10 0 60538 33300.00000 0 -17279335.655 -16261857.125 -9394870.191 10 0 60538 34200.00000 0 -17986932.644 -16944903.136 -6379224.251 10 0 60538 35100.00000 0 -18490302.507 -17292168.886 -3239847.130 10 0 60538 36000.00000 0 -18739370.026 -17328572.736 -37636.832 10 0 60538 36900.00000 0 -18691881.360 -17089794.848 3165302.152 10 0 60538 37800.00000 0 -18315343.840 -16620580.398 6306859.702 10 0 60538 38700.00000 0 -17588571.586 -15972677.470 9326120.374 10 0 60538 39600.00000 0 -16502771.619 -15202496.898 12164539.986 10 0 60538 40500.00000 0 -15062124.266 -14368592.734 14767075.998 10 0 60538 41400.00000 0 -13283832.723 -13529069.392 17083250.133 10 0 60538 42300.00000 0 -11197638.707 -12739024.434 19068123.059 10 0 60538 43200.00000 0 -8844823.228 -12048134.299 20683162.731 10 0 60538 44100.00000 0 -6276732.776 -11498484.211 21896990.069 10 0 60538 45000.00000 0 -3552890.852 -11122733.276 22685987.893 10 0 60538 45900.00000 0 -738771.862 -10942691.798 23034761.610 10 0 60538 46800.00000 0 2096671.629 -10968370.726 22936442.746 10 0 60538 47700.00000 0 4883626.973 -11197543.523 22392829.269 10 0 60538 48600.00000 0 7554077.382 -11615839.464 21414359.491 10 0 60538 49500.00000 0 10044386.458 -12197365.228 20019919.347 10 0 60538 50400.00000 0 12297704.642 -12905829.527 18236485.895 10 0 60538 51300.00000 0 14266097.975 -13696124.321 16098612.954 10 0 60538 52200.00000 0 15912310.803 -14516296.785 13647767.855 10 0 60538 53100.00000 0 17211088.969 -15309829.429 10931531.374 10 0 60538 54000.00000 0 18150008.245 -16018132.355 8002675.747 10 0 60538 54900.00000 0 18729773.440 -16583142.266 4918138.375 10 0 60538 55800.00000 0 18963975.792 -16949917.832 1737911.283 10 0 60538 56700.00000 0 18878319.292 -17069120.836 -1476131.682 10 0 60538 57600.00000 0 18509349.144 -16899277.023 -4661446.359 10 0 60538 58500.00000 0 17902736.814 -16408719.799 -7756043.947 10 0 60538 59400.00000 0 17111195.105 -15577133.299 -10699705.937 10 0 60538 60300.00000 0 16192112.414 -14396628.414 -13435163.645 10 0 60538 61200.00000 0 15205007.240 -12872305.272 -15909218.457 10 0 60538 62100.00000 0 14208911.495 -11022277.599 -18073780.368 10 0 60538 63000.00000 0 13259793.867 -8877157.191 -19886804.275 10 0 60538 63900.00000 0 12408132.510 -6479019.645 -21313105.781 10 0 60538 64800.00000 0 11696739.580 -3879894.283 -22325040.947 10 0 60538 65700.00000 0 11158929.108 -1139841.069 -22903037.354 10 0 60538 66600.00000 0 10817104.895 1675305.534 -23035966.813 10 0 60538 67500.00000 0 10681827.129 4496432.109 -22721353.300 10 0 60538 68400.00000 0 10751396.127 7253777.938 -21965412.795 10 0 60538 69300.00000 0 11011969.759 9879593.908 -20782924.925 10 0 60538 70200.00000 0 11438208.753 12310719.020 -19196939.377 10 0 60538 71100.00000 0 11994421.925 14490968.380 -17238323.104 10 0 60538 72000.00000 0 12636162.531 16373234.507 -14945157.298 10 0 60538 72900.00000 0 13312208.078 17921215.776 -12361995.832 10 0 60538 73800.00000 0 13966839.931 19110701.363 -9538999.518 10 0 60538 74700.00000 0 14542326.548 19930360.491 -6530962.872 10 0 60538 75600.00000 0 14981505.611 20382004.394 -3396252.179 10 0 60538 76500.00000 0 15230356.254 20480311.416 -195675.292 10 0 60538 77400.00000 0 15240452.885 20252027.889 3008694.948 10 0 60538 78300.00000 0 14971197.122 19734679.384 6154720.987 10 0 60538 79200.00000 0 14391733.726 18974847.306 9181401.373 10 0 60538 80100.00000 0 13482469.468 18026083.691 12030048.999 10 0 60538 81000.00000 0 12236130.570 16946552.179 14645424.206 10 0 60538 81900.00000 0 10658313.533 15796494.305 16976801.155 10 0 60538 82800.00000 0 8767505.199 14635627.376 18978947.203 10 0 60538 83700.00000 0 6594569.998 13520582.936 20612996.831 10 0 60538 84600.00000 0 4181724.294 12502492.905 21847203.650 10 0 60538 85500.00000 0 1581039.008 11624824.291 22657556.322 10 0 60539 0.00000 0 -1147468.546 10921553.009 23028246.748 10 0 60539 900.00000 0 -3938077.491 10415752.827 22951981.597 10 0 60539 1800.00000 0 -6721845.518 10118659.502 22430130.596 10 0 60539 2700.00000 0 -9429233.565 10029248.281 21472708.874 10 0 60539 3600.00000 0 -11992761.542 10134343.842 20098192.429 10 0 60539 4500.00000 0 -14349587.037 10409258.122 18333169.663 10 0 60539 5400.00000 0 -16443900.098 10818929.838 16211834.710 10 0 60539 6300.00000 0 -18229034.624 11319518.247 13775331.352 10 0 60539 7200.00000 0 -19669208.348 11860384.305 11070959.452 10 0 60539 8100.00000 0 -20740818.600 12386375.783 8151258.643 10 0 60539 9000.00000 0 -21433239.522 12840319.618 5072986.744 10 0 60539 9900.00000 0 -21749087.196 13165615.617 1896012.860 10 0 60539 10800.00000 0 -21703941.659 13308820.932 -1317852.939 10 0 60539 11700.00000 0 -21325537.839 13222114.836 -4506069.876 10 0 60539 12600.00000 0 -20652460.042 12865538.164 -7606592.108 10 0 60539 13500.00000 0 -19732395.857 12208911.314 -10559084.871 10 0 60539 14400.00000 0 -18620024.076 11233348.353 -13306106.397 10 0 60539 15300.00000 0 -17374626.806 9932302.030 -15794231.681 10 0 60539 16200.00000 0 -16057527.486 8312094.536 -17975095.566 10 0 60539 17100.00000 0 -14729463.646 6391910.766 -19806334.535 10 0 60539 18000.00000 0 -13448005.717 4203253.653 -21252408.824 10 0 60539 18900.00000 0 -12265130.777 1788883.837 -22285289.189 10 0 60539 19800.00000 0 -11225053.171 -798712.386 -22884995.518 10 0 60539 20700.00000 0 -10362402.730 -3499263.281 -23039977.507 10 0 60539 21600.00000 0 -9700826.297 -6246979.502 -22747330.799 10 0 60539 22500.00000 0 -9252070.245 -8973055.618 -22012845.124 10 0 60539 23400.00000 0 -9015581.331 -11608301.745 -20850884.173 10 0 60539 24300.00000 0 -8978641.376 -14085796.573 -19284100.033 10 0 60539 25200.00000 0 -9117028.931 -16343452.269 -17342988.050 10 0 60539 26100.00000 0 -9396179.026 -18326385.496 -15065290.939 10 0 60539 27000.00000 0 -9772791.315 -19988996.853 -12495263.730 10 0 60539 27900.00000 0 -10196818.196 -21296673.320 -9682813.737 10 0 60539 28800.00000 0 -10613748.679 -22227043.808 -6682532.180 10 0 60539 29700.00000 0 -10967091.337 -22770736.562 -3552636.082 10 0 60539 30600.00000 0 -11200951.460 -22931607.918 -353840.888 10 0 60539 31500.00000 0 -11262593.468 -22726433.829 2851814.429 10 0 60539 32400.00000 0 -11104880.435 -22184078.092 6002167.058 10 0 60539 33300.00000 0 -10688487.626 -21344172.900 9036131.712 10 0 60539 34200.00000 0 -9983796.503 -20255367.609 11894880.514 10 0 60539 35100.00000 0 -8972389.000 -18973219.538 14522978.792 10 0 60539 36000.00000 0 -7648078.529 -17557815.294 16869455.165 10 0 60539 36900.00000 0 -6017433.492 -16071222.290 18888785.571 10 0 60539 37800.00000 0 -4099770.188 -14574876.922 20541772.691 10 0 60539 38700.00000 0 -1926613.930 -13127018.361 21796304.242 10 0 60539 39600.00000 0 459350.755 -11780274.896 22627975.835 10 0 60539 40500.00000 0 3005798.821 -10579503.323 23020566.646 10 0 60539 41400.00000 0 5652690.934 -9559971.319 22966358.757 10 0 60539 42300.00000 0 8334528.819 -8745958.575 22466293.804 10 0 60539 43200.00000 0 10982847.568 -8149835.050 21529963.434 10 0 60539 44100.00000 0 13528842.682 -7771654.959 20175433.078 10 0 60539 45000.00000 0 15906023.609 -7599283.647 18428901.531 10 0 60539 45900.00000 0 18052784.045 -7609052.243 16324201.972 10 0 60539 46800.00000 0 19914782.254 -7766912.765 13902153.054 10 0 60539 47700.00000 0 21447032.117 -8030045.225 11209771.816 10 0 60539 48600.00000 0 22615617.315 -8348848.903 8299363.053 10 0 60539 49500.00000 0 23398956.604 -8669233.488 5227502.464 10 0 60539 50400.00000 0 23788566.772 -8935112.661 2053933.430 10 0 60539 51300.00000 0 23789291.032 -9090993.810 -1159600.759 10 0 60539 52200.00000 0 23418983.237 -9084553.122 -4350565.805 10 0 60539 53100.00000 0 22707661.422 -8869085.756 -7456861.919 10 0 60539 54000.00000 0 21696166.845 -8405725.933 -10418041.072 10 0 60539 54900.00000 0 20434385.731 -7665341.610 -13176491.220 10 0 60539 55800.00000 0 18979109.544 -6630022.305 -15678563.533 10 0 60539 56700.00000 0 17391624.804 -5294096.037 -17875620.012 10 0 60539 57600.00000 0 15735134.769 -3664631.486 -19724980.752 10 0 60539 58500.00000 0 14072122.059 -1761403.414 -21190752.367 10 0 60539 59400.00000 0 12461763.405 383677.913 -22244521.740 10 0 60539 60300.00000 0 10957505.062 2727649.924 -22865902.185 10 0 60539 61200.00000 0 9604900.188 5218048.734 -23042922.037 10 0 60539 62100.00000 0 8439798.098 7794863.595 -22772248.979 10 0 60539 63000.00000 0 7486960.171 10392813.765 -22059246.461 10 0 60539 63900.00000 0 6759159.082 12943853.456 -20917861.784 10 0 60539 64800.00000 0 6256797.646 15379801.128 -19370348.556 10 0 60539 65700.00000 0 5968061.717 17634984.428 -17446829.210 10 0 60539 66600.00000 0 5869599.307 19648791.315 -15184706.261 10 0 60539 67500.00000 0 5927696.026 21368022.029 -12627933.765 10 0 60539 68400.00000 0 6099896.337 22748944.749 -9826163.054 10 0 60539 69300.00000 0 6337001.421 23758970.037 -6833779.207 10 0 60539 70200.00000 0 6585358.817 24377875.189 -3708846.880 10 0 60539 71100.00000 0 6789346.777 24598528.107 -511985.795 10 0 60539 72000.00000 0 6893948.149 24427081.278 2694802.366 10 0 60539 72900.00000 0 6847304.966 23882628.562 5849332.960 10 0 60539 73800.00000 0 6603145.694 22996339.768 8890440.204 10 0 60539 74700.00000 0 6122982.553 21810109.764 11759158.610 10 0 60539 75600.00000 0 5377985.923 20374778.979 14399861.421 10 0 60539 76500.00000 0 4350456.378 18747999.853 16761334.357 10 0 60539 77400.00000 0 3034831.676 16991838.445 18797764.258 10 0 60539 78300.00000 0 1438185.420 15170211.180 20469623.996 10 0 60539 79200.00000 0 -419804.858 13346263.378 21744436.995 10 0 60539 80100.00000 0 -2507420.393 11579798.560 22597407.006 10 0 60539 81000.00000 0 -4781972.904 9924865.199 23011901.208 10 0 60539 81900.00000 0 -7191342.528 8427601.080 22979777.393 10 0 60539 82800.00000 0 -9675919.721 7124424.723 22501548.731 10 0 60539 83700.00000 0 -12170872.007 6040648.999 21586382.480 10 0 60539 84600.00000 0 -14608642.816 5189574.575 20251931.995 10 0 60539 85500.00000 0 -16921579.509 4572100.983 18524004.371 10 0 60540 0.00000 0 -19044581.834 4176871.546 16436069.404 10 0 60540 900.00000 0 -20917661.920 3980945.886 14028617.153 10 0 60540 1800.00000 0 -22488306.197 3950972.159 11348378.589 10 0 60540 2700.00000 0 -23713544.035 4044808.756 8447420.050 10 0 60540 3600.00000 0 -24561633.163 4213527.313 5382131.423 10 0 60540 4500.00000 0 -25013291.762 4403711.556 2212126.730 10 0 60540 5400.00000 0 -25062424.811 4559953.962 -1000921.004 10 0 60540 6300.00000 0 -24716313.738 4627443.479 -4194487.229 10 0 60540 7200.00000 0 -23995261.251 4554533.425 -7306421.224 10 0 60540 8100.00000 0 -22931706.414 4295179.423 -10276164.423 10 0 60540 9000.00000 0 -21568847.643 3811142.726 -13045936.936 10 0 60540 9900.00000 0 -19958832.186 3073864.326 -15561868.205 10 0 60540 10800.00000 0 -18160589.030 2065929.403 -17775049.103 10 0 60540 11700.00000 0 -16237397.085 782059.232 -19642484.634 10 0 60540 12600.00000 0 -14254291.452 -770412.158 -21127928.618 10 0 60540 13500.00000 0 -12275417.005 -2571597.325 -22202584.416 10 0 60540 14400.00000 0 -10361440.285 -4589648.878 -22845658.604 10 0 60540 15300.00000 0 -8567127.822 -6781862.654 -23044757.532 10 0 60540 16200.00000 0 -6939191.530 -9096244.922 -22796119.848 10 0 60540 17100.00000 0 -5514490.241 -11473478.565 -22104681.236 10 0 60540 18000.00000 0 -4318661.251 -13849206.639 -20983970.785 10 0 60540 18900.00000 0 -3365237.555 -16156538.592 -19455841.507 10 0 60540 19800.00000 0 -2655286.014 -18328675.243 -17550040.574 10 0 60540 20700.00000 0 -2177579.909 -20301543.669 -15303627.804 10 0 60540 21600.00000 0 -1909297.020 -22016332.825 -12760253.710 10 0 60540 22500.00000 0 -1817212.399 -23421824.746 -9969311.036 10 0 60540 23400.00000 0 -1859334.452 -24476424.774 -6984976.191 10 0 60540 24300.00000 0 -1986914.397 -25149806.633 -3865159.028 10 0 60540 25200.00000 0 -2146743.618 -25424104.201 -670381.223 10 0 60540 26100.00000 0 -2283641.455 -25294600.808 2537394.994 10 0 60540 27000.00000 0 -2343028.013 -24769887.638 5695965.204 10 0 60540 27900.00000 0 -2273473.090 -23871485.111 8744085.069 10 0 60540 28800.00000 0 -2029113.505 -22632943.501 11622653.343 10 0 60540 29700.00000 0 -1571836.514 -21098460.469 14275852.943 10 0 60540 30600.00000 0 -873136.988 -19321073.344 16652228.337 10 0 60540 31500.00000 0 84430.435 -17360501.540 18705678.768 10 0 60540 32400.00000 0 1306266.003 -15280728.822 20396348.601 10 0 60540 33300.00000 0 2785248.809 -13147425.765 21691398.059 10 0 60540 34200.00000 0 4501791.284 -11025319.271 22565639.849 10 0 60540 35100.00000 0 6424423.589 -8975618.013 23002029.675 10 0 60540 36000.00000 0 8510885.248 -7053600.336 22992001.267 10 0 60540 36900.00000 0 10709680.280 -5306464.418 22535639.251 10 0 60540 37800.00000 0 12962032.808 -3771529.695 21641686.124 10 0 60540 38700.00000 0 15204163.248 -2474864.044 20327382.505 10 0 60540 39600.00000 0 17369791.523 -1430393.707 18618142.862 10 0 60540 40500.00000 0 19392763.908 -639532.876 16547072.004 10 0 60540 41400.00000 0 21209694.436 -91348.271 14154330.685 10 0 60540 42300.00000 0 22762510.626 236748.445 11486361.719 10 0 60540 43200.00000 0 24000796.785 377809.798 8594990.957 10 0 60540 44100.00000 0 24883836.186 373713.776 5536420.181 10 0 60540 45000.00000 0 25382265.697 273147.049 2370131.512 10 0 60540 45900.00000 0 25479272.595 129296.174 -842275.026 10 0 60540 46800.00000 0 25171282.519 -2654.434 -4038287.482 10 0 60540 47700.00000 0 24468109.096 -68110.599 -7155707.074 10 0 60540 48600.00000 0 23392558.670 -15631.541 -10133867.502 10 0 60540 49500.00000 0 21979506.771 200641.846 -12914823.669 10 0 60540 50400.00000 0 20274485.464 618797.783 -15444485.714 10 0 60540 51300.00000 0 18331841.463 1267297.280 -17673675.572 10 0 60540 52200.00000 0 16212542.921 2163530.206 -19559085.101 10 0 60540 53100.00000 0 13981727.497 3312845.565 -21064117.048 10 0 60540 54000.00000 0 11706094.867 4708097.494 -22159592.745 10 0 60540 54900.00000 0 9451252.958 6329726.641 -22824313.308 10 0 60540 55800.00000 0 7279128.713 8146373.906 -23045464.117 10 0 60540 56700.00000 0 5245551.018 10116001.195 -22818855.507 10 0 60540 57600.00000 0 3398105.752 12187472.603 -22148995.784 10 0 60540 58500.00000 0 1774351.280 14302530.281 -21048995.808 10 0 60540 59400.00000 0 400467.320 16398082.792 -19540307.551 10 0 60540 60300.00000 0 -709608.114 18408710.897 -17652302.030 10 0 60540 61200.00000 0 -1554519.419 20269286.538 -15421695.009 10 0 60540 62100.00000 0 -2145299.327 21917596.202 -12891831.644 10 0 60540 63000.00000 0 -2504649.935 23296859.552 -10111843.874 10 0 60540 63900.00000 0 -2665730.559 24358038.601 -7135696.828 10 0 60540 64800.00000 0 -2670504.731 25061841.317 -4021142.632 10 0 60540 65700.00000 0 -2567717.005 25380336.282 -828601.776 10 0 60540 66600.00000 0 -2410585.671 25298111.177 2380006.293 10 0 60540 67500.00000 0 -2254309.314 24812926.879 5542460.766 10 0 60540 68400.00000 0 -2153492.829 23935840.104 8597442.114 10 0 60540 69300.00000 0 -2159601.809 22690789.512 11485716.602 10 0 60540 70200.00000 0 -2318552.899 21113662.626 14151279.931 10 0 60540 71100.00000 0 -2668541.946 19250882.357 16542438.220 10 0 60540 72000.00000 0 -3238201.785 17157571.838 18612805.772 10 0 60540 72900.00000 0 -4045167.703 14895373.655 20322200.821 10 0 60540 73800.00000 0 -5095111.609 12530013.695 21637422.436 10 0 60540 74700.00000 0 -6381286.491 10128710.333 22532893.964 10 0 60540 75600.00000 0 -7884601.546 7757535.928 22991160.901 10 0 60540 76500.00000 0 -9574226.402 5478839.467 23003233.687 10 0 60540 77400.00000 0 -11408700.823 3348836.784 22568768.632 10 0 60540 78300.00000 0 -13337505.295 1415467.810 21696083.100 10 0 60540 79200.00000 0 -15303028.555 -283390.587 20402003.962 10 0 60540 80100.00000 0 -17242851.326 -1721282.188 18711551.394 10 0 60540 81000.00000 0 -19092251.988 -2884043.194 16657463.144 10 0 60540 81900.00000 0 -20786830.187 -3770152.077 14279567.432 10 0 60540 82800.00000 0 -22265138.855 -4390543.117 11624015.782 10 0 60540 83700.00000 0 -23471214.269 -4767891.839 8742389.902 10 0 60540 84600.00000 0 -24356897.512 -4935402.832 5690699.601 10 0 60540 85500.00000 0 -24883849.030 -4935151.664 2528291.145 99